Reflectivity
-20 -20 -20 -20 -20 -20 -20 -20 -20 -20 -20 -20 -20 -20 -20 -20 -20 -20 -20 -20 -20 -20 -20 -20 -20 -20 -20 -20 -20 -20 -20 7 11 5 14 11 15 2 16 -6 19 -12 17 12 3 -4 15 9 -9
-9 -20 -20 -20 -20 -20 -20 -20 -20 -20 -20 -20 -20 -20 -20 -20 -20 -20 -20 -20 -20 -20 -20 -20 -20 -20 -20 -20 -20 -20 -20 -20 -20 -11 14 -10 7 5 -17 13 -10 18 10 14 18 13 14 9 13
-19 -20 -20 -20 -20 -20 -20 -20 -20 -20 -20 -20 -20 -20 -20 -20 -20 -20 -20 -20 -20 -20 -20 -20 -20 -20 -20 -20 -20 -20 -20 -20 -20 -19 -8 11 13 15 6 13 1 16 17 11 17 15 11 13 12
-20 -20 -20 -20 -20 -20 -20 -20 -20 -20 -20 -20 -20 -20 -20 -20 -20 -20 -20 -20 -20 -20 -20 -20 -20 -20 -20 -20 -20 -20 -20 -20 -15 13 14 17 -11 16 -20 -20 1 9 14 16 16 11 8 17 12
-20 -20 -20 -20 -20 -20 -20 -20 -20 -20 -20 -20 -20 -20 -20 -20 -20 -20 -20 -20 -20 -20 -20 -20 -20 -20 -20 -20 -20 -20 -3 -3 9 5 -14 16 7 -20 -1 -15 7 3 16 4 10 16 18 13 7
-20 -20 -20 -20 -20 -20 -20 -20 -20 -20 -20 -20 -20 -20 -20 -20 -20 -20 -20 -20 -20 -20 -20 -20 -20 -20 -20 -20 -20 -20 -20 -20 -20 -16 -20 -12 -20 -20 -20 -20 -12 -7 8 13 6 -7 21 12 5
-20 -20 -20 -20 -20 -20 -20 -20 -20 -20 -20 -20 -20 -20 -20 -20 -20 -20 -20 -20 -20 -20 -20 -20 -20 -20 -20 -20 -20 -20 -20 -20 -20 -20 -20 -20 -20 -20 -20 -20 -19 -17 -4 -20 3 7 16 10 3
-20 -20 -20 -20 -20 -20 -20 -20 -20 -20 -20 -20 -20 -20 -20 -20 -20 -20 -20 -20 -20 -20 -20 -20 -20 -20 -20 -20 -20 -20 -20 -20 -20 -20 -20 -20 -20 -20 -20 -20 -20 -20 -20 -20 -4 -19 -20 5 11
-20 -20 -20 -20 -20 -20 -20 -20 -20 -20 -20 -20 -20 -20 -20 -20 -20 -20 -20 -20 -20 -20 -20 -20 -20 -20 -20 -20 -20 -20 -20 -20 -20 -20 -20 -20 -20 -20 -20 -20 -20 -20 -20 -20 -20 -13 -7 -5 -20
-20 -20 -20 -20 -20 -20 -20 -20 -20 -20 -20 -20 -20 -20 -20 -20 -20 -20 -20 -20 -20 -20 -20 -20 -20 -20 -20 -20 -20 -20 -20 -20 -20 -20 -20 -20 -20 -20 -20 -20 -20 -20 -20 -20 -20 -20 -20 -20 -20
-20 -20 -20 -20 -20 -20 -20 -20 -20 -20 -20 -20 -20 -20 -20 -20 -20 -20 -20 -20 -20 -20 -20 -20 -20 -20 -20 -20 -20 -20 -20 -20 -20 -20 -20 -20 -20 -20 -20 -20 -20 -20 -20 -20 -20 -20 -20 -20 -20
-20 -20 -20 -20 -20 -20 -20 -20 -20 -20 -20 -20 -20 -20 -20 -20 -20 -20 -20 -20 -20 -20 -20 -20 -20 -20 -20 -20 -20 -20 -20 -20 -20 -20 -20 -20 -20 -20 -20 -20 -20 -20 -20 -20 -20 -20 -20 -20 -20
-20 -20 -20 -20 -20 -20 -20 -20 -20 -20 -20 -20 -20 -20 -20 -20 -20 -20 -20 -20 -20 -20 -20 -20 -20 -20 -20 -20 -20 -20 -20 -20 -20 -20 -20 -20 -20 -20 -20 -20 -20 -20 -20 -20 -20 -20 -20 -20 -7
-20 -20 -20 -20 -20 -20 -20 -20 -20 -20 -20 -20 -20 -20 -20 -20 -20 -20 -20 -20 -20 -20 -20 -20 -20 -20 -20 -20 -20 -20 -20 -20 -20 -20 -20 -20 -20 -20 -20 -20 -20 -20 -20 -20 -20 -20 -20 -20 -20
-20 -20 -20 -20 -20 -20 -20 -20 -20 -20 -20 -20 -20 -20 -20 -20 -20 -20 -20 -20 -20 -20 -20 -20 -20 -20 -20 -20 -20 -20 -20 -20 -20 -20 -20 -20 -20 -20 -20 -20 -20 -20 -20 -20 -20 -20 -20 -3 -20
-20 -20 -20 -20 -20 -20 -20 -20 -20 -20 -20 -20 -20 -20 -20 -20 -20 -20 -20 -20 -20 -20 -20 -20 -20 -20 -20 -20 -20 -20 -20 -20 -20 -20 -20 -20 -20 -20 -20 -20 -20 -20 -20 -20 -20 -2 -7 2 -11
-20 -20 -20 -20 -20 -20 -20 -20 -20 -20 -20 -20 -20 -20 -20 -20 -20 -20 -20 -20 -20 -20 -20 -20 -20 -20 -20 -20 -20 -20 -20 -20 -20 -20 -20 -20 -20 -20 -20 -20 -20 -20 -20 -20 4 4 7 2 -20
-20 -20 -20 -20 -20 -20 -20 -20 -20 -20 -20 -20 -20 -20 -20 -20 -20 -20 -20 -20 -20 -20 -20 -20 -20 -20 -20 -20 -20 -20 -20 -20 -20 -20 -20 -20 -20 -20 -20 -20 -20 -20 -20 -20 -20 -17 -12 -3 -20
-20 -20 -20 -20 -20 -20 -20 -20 -20 -20 -20 -20 -20 -20 -20 -20 -20 -20 -20 -20 -20 -20 -20 -20 -20 -20 -20 -20 -20 -20 -20 -20 -20 -20 -20 -20 -20 -20 -20 -20 -20 11 0 -17 -20 -15 -14 -15 -4
-20 -20 -20 -20 -20 -20 -20 -20 -20 -20 -20 -20 -20 -20 -20 -20 -20 -20 -20 -20 -20 -20 -20 -20 -20 -20 -20 -20 -20 -20 -20 -20 -20 -20 -20 -20 -20 -20 -20 -20 -13 -11 6 1 4 -7 -1 -20 11
-20 -20 -20 -20 -20 -20 -20 -20 -20 -20 -20 -20 -20 -20 -20 -20 -20 -20 -20 -20 -20 -20 -20 -20 -20 -20 -20 -20 -20 -20 -20 -20 -20 -20 -20 -20 -20 -20 -20 -20 -20 -20 -19 2 9 10 4 10 15
-20 -20 -20 -20 -20 -20 -20 -20 -20 -20 -20 -20 -20 -20 -20 -20 -20 -20 -20 -20 -20 -20 -20 -20 -20 -20 -20 -20 -20 -20 -20 -20 -20 -20 -20 -20 -20 -20 -20 -20 -20 -20 -20 -20 1 7 11 15 5
-20 -20 -20 -20 -20 -20 -20 -20 -20 -20 -20 -20 -20 -20 -20 -20 -20 -20 -20 -20 -20 -20 -20 -20 -20 -20 -20 -20 -20 -20 -20 -20 -20 -20 -20 -20 -20 -20 -20 -20 -20 -20 -20 -20 -20 -6 8 5 13
-20 -20 -20 -20 -20 -20 -20 -20 -20 -20 -20 -20 -20 -20 -20 -20 -20 -20 -20 -20 -20 -20 -20 -20 -20 -20 -20 -20 -20 -20 -20 -20 -20 -20 -20 -20 -20 -20 -20 -20 -20 -20 -20 -20 -20 -20 -19 0 -10
-20 -20 -20 -20 -20 -20 -20 -20 -20 -20 -20 -20 -20 -20 -20 -20 -20 -20 -20 -20 -20 -20 -20 -20 -20 -20 -20 -20 -20 -20 -20 -20 -20 -20 -20 -20 -20 -20 -20 -20 -20 -20 -20 -20 -20 -20 -20 -4 -20
-20 -20 -20 -20 -20 -20 -20 -20 -20 -20 -20 -20 -20 -20 -20 -20 -20 -20 -20 -20 -20 -20 -20 -20 -20 -20 -20 -20 -20 -20 -20 -20 -20 -20 -20 -20 -20 -20 -20 -20 -20 -20 -20 -20 -20 -20 -20 4 -20
-20 -20 -20 -20 -20 -20 -20 -20 -20 -20 -20 -20 -20 -20 -20 -20 -20 -20 -20 -20 -20 -20 -20 -20 -20 -20 -20 -20 -20 -20 -20 -20 -20 -20 -20 -20 -20 -20 -20 -20 -20 -20 -20 -20 -20 -20 -20 -20 -20
-20 -20 -20 -20 -20 -20 -20 -20 -20 -20 -20 -20 -20 -20 -20 -20 -20 -20 -20 -20 -20 -20 -20 -20 -20 -20 -20 -20 -20 -20 -20 -20 -20 -20 -20 -20 -20 -20 -20 -20 -20 -20 -20 -20 -20 -20 -20 -20 -20
-20 -20 -20 -20 -20 -20 -20 -20 -20 -20 -20 -20 -20 -20 -20 -20 -20 -20 -20 -20 -20 -20 -20 -20 -20 -20 -20 -20 -20 -20 -20 -20 -20 -20 -20 -20 -20 -20 -20 -20 -20 -20 -20 -20 -20 -20 -20 -20 -20
-20 -20 -20 -20 -20 -20 -20 -20 -20 -20 -20 -20 -20 -20 -20 -20 -20 -20 -20 -20 -20 -20 -20 -20 -20 -20 -20 -20 -20 -20 -20 -20 -20 -20 -20 -20 -20 -20 -20 -20 -20 -20 -20 -20 -20 -20 -20 -20 -20
Wind_Speed
4 5 2 2 1 3 3 2 2 5 4 4 2 4 9 7 6 4 3 7 7 9 10 10 14 15 16 17 17 15 16 14 17 14 15 15 15 17 17 17 18 18 17 17 19 19 19 17 18
4 3 3 2 3 2 2 1 3 2 8 8 6 3 6 6 4 6 1 7 8 9 9 10 15 15 15 15 14 15 15 16 15 14 15 16 17 18 18 18 19 18 17 18 17 19 19 20 19
4 3 1 4 3 2 2 2 7 8 7 1 5 6 3 3 4 3 2 4 7 10 11 11 15 15 16 15 14 12 14 14 13 14 14 16 15 15 17 17 17 17 17 18 17 18 19 21 20
2 3 4 4 3 2 1 6 9 9 4 4 6 9 5 4 2 3 4 5 8 9 11 13 14 15 15 14 15 14 12 11 13 13 14 15 17 17 18 18 17 16 18 18 18 17 18 19 19
3 2 4 4 3 2 3 8 2 4 4 3 1 5 4 3 5 5 5 5 7 7 9 11 16 15 15 15 14 14 14 14 14 14 15 16 18 18 17 16 16 15 16 19 18 17 18 18 19
3 2 3 2 3 2 2 2 3 3 3 4 5 5 3 2 2 4 5 7 7 8 8 9 13 15 15 15 14 13 13 14 14 16 17 17 18 17 17 17 16 18 19 19 19 19 18 19 19
5 3 3 4 6 4 4 3 4 5 4 3 6 5 5 4 4 4 5 5 6 7 7 8 8 11 13 15 14 13 14 14 15 16 16 16 16 17 17 17 17 19 20 19 19 19 18 20 20
4 4 3 2 5 3 6 3 3 2 4 4 1 5 5 4 6 4 5 6 6 7 8 8 8 9 8 8 14 15 14 15 15 15 16 15 14 16 15 17 18 19 20 19 19 19 19 18 20
1 4 2 5 6 5 5 4 2 3 6 4 4 4 7 8 5 4 4 6 6 7 7 7 9 8 8 7 9 10 12 14 13 11 14 11 8 10 12 15 18 18 20 19 18 19 19 19 18
5 3 2 1 2 4 7 2 6 4 5 5 7 6 6 6 5 5 5 5 6 6 7 6 7 7 7 6 7 7 8 7 7 8 9 8 9 10 12 12 16 17 17 17 18 18 18 14 9
4 3 2 4 2 7 7 4 2 10 2 5 9 10 6 5 5 5 4 3 3 4 5 6 7 6 6 6 4 4 4 5 5 8 8 8 7 7 7 7 7 8 12 7 10 10 8 12 10
6 4 2 2 3 4 6 6 4 3 2 5 13 10 6 6 5 3 3 3 3 4 5 5 6 6 6 4 4 4 5 5 5 6 8 7 6 8 9 7 8 7 7 10 9 7 10 11 12
5 2 4 4 7 6 6 4 5 4 5 9 10 7 8 5 4 2 3 3 2 5 5 6 5 6 5 6 4 5 5 5 6 7 8 8 8 9 9 9 8 8 8 8 9 9 9 10 11
2 6 5 3 3 3 4 2 1 4 6 8 8 7 6 5 3 3 2 3 4 4 5 6 5 5 5 5 7 5 5 6 7 7 8 10 9 8 9 9 9 9 9 9 9 9 9 9 11
4 4 2 1 2 2 5 1 4 7 8 8 7 6 5 4 3 4 1 2 3 4 5 6 6 6 6 7 7 6 6 6 6 7 9 10 9 10 10 8 9 9 9 11 9 9 9 9 11
3 3 1 2 3 1 0 3 2 8 11 9 7 5 4 3 3 3 1 1 1 3 5 5 5 6 7 7 6 5 5 5 5 5 6 10 10 10 9 8 8 9 8 8 8 9 9 10 10
4 1 1 1 5 4 2 1 3 7 8 9 7 6 5 4 2 2 1 1 2 4 5 5 6 6 7 7 6 5 7 4 5 6 7 10 9 10 8 6 7 10 7 8 8 9 9 10 10
2 1 2 3 3 3 3 7 3 8 8 9 8 6 5 4 4 3 2 1 2 2 4 4 4 6 6 5 5 5 5 5 5 6 7 9 8 10 9 7 8 9 8 7 7 8 10 10 10
5 2 2 1 3 3 5 8 6 10 7 8 9 8 7 5 4 4 3 1 2 1 4 4 5 6 4 4 4 5 5 5 6 7 10 9 8 9 10 8 9 9 8 9 8 7 9 8 10
2 2 2 1 2 4 0 9 4 8 7 10 11 10 8 4 6 6 4 1 1 3 4 4 4 4 4 3 2 2 3 3 4 6 8 9 10 11 9 10 9 11 8 10 9 8 6 5 8
2 2 2 2 1 2 5 4 2 1 3 5 8 6 7 9 7 6 5 3 2 3 3 4 4 4 4 4 3 3 2 3 3 7 7 8 9 9 10 10 9 10 8 7 9 8 8 6 7
1 1 2 2 2 2 3 4 2 2 7 6 9 9 9 9 6 5 5 4 3 3 3 3 4 4 4 4 3 4 3 4 3 5 6 7 9 9 9 9 9 9 8 9 8 9 9 7 6
2 1 2 2 3 1 1 0 3 2 6 10 12 11 10 9 8 8 6 5 2 2 3 3 3 2 3 3 4 3 4 4 5 5 8 8 8 8 9 10 9 9 8 10 11 11 10 7 8
5 3 4 3 2 1 0 1 3 4 5 2 4 12 12 10 9 7 6 4 3 3 2 2 2 3 4 3 4 4 5 6 6 7 6 6 6 6 9 10 8 8 9 10 9 9 9 8 8
2 3 3 2 3 2 2 0 7 4 6 4 4 13 13 10 9 9 8 7 5 5 3 2 2 3 4 4 4 4 5 5 6 7 5 8 7 7 9 10 9 7 8 9 10 10 10 7 7
1 2 4 2 2 4 2 6 3 2 1 2 3 8 10 10 9 9 9 8 8 6 4 3 3 4 4 4 4 5 5 4 4 5 6 5 6 7 9 9 9 9 8 7 8 7 8 9 9
1 2 1 7 2 1 2 6 4 1 4 3 5 8 11 11 11 11 9 8 7 6 5 4 4 5 4 4 4 5 4 5 5 6 6 5 6 6 9 9 9 9 9 8 8 6 8 9 9
3 3 2 2 2 4 3 5 5 6 10 10 10 13 11 10 10 10 9 9 8 6 5 4 5 6 5 4 4 4 5 5 5 5 6 7 7 7 8 9 10 9 9 9 9 7 8 9 8
2 1 4 3 1 4 2 7 7 8 9 16 15 14 13 13 13 11 10 9 8 6 6 7 7 6 5 4 4 5 5 6 5 5 6 6 7 7 8 8 8 9 9 9 8 8 8 9 10
2 4 4 4 4 2 1 10 3 5 5 8 11 13 12 12 12 12 10 9 9 9 7 7 6 5 5 4 5 5 5 5 6 6 7 7 8 8 7 7 8 9 9 9 7 8 7 8 10
Wind_Direction
103 134 84 45 140 68 102 106 104 116 104 25 63 68 91 46 31 75 122 31 30 28 10 1 11 4 358 357 350 346 336 353 349 346 8 358 353 354 355 350 350 349 348 346 338 336 336 336 326
120 122 55 83 91 140 136 124 119 77 127 136 78 68 52 79 53 93 160 15 31 24 9 355 12 6 1 354 350 353 351 356 359 2 356 358 1 359 357 354 352 348 353 341 344 338 332 335 338
121 44 80 84 84 121 137 133 120 106 132 105 104 45 72 56 60 78 54 33 39 31 15 2 11 7 1 358 356 355 358 1 354 6 3 356 0 1 351 351 342 349 345 342 347 345 341 332 329
110 38 57 72 83 81 79 130 131 129 107 72 110 82 83 13 28 63 68 63 57 38 23 10 16 10 8 8 11 7 5 359 5 3 6 355 357 356 349 348 339 346 338 343 341 342 340 338 322
48 67 69 73 101 94 84 128 115 112 108 77 132 120 74 65 82 76 75 70 65 50 35 22 18 17 15 11 13 9 7 13 9 5 6 358 357 353 350 341 349 343 340 339 342 339 333 340 331
61 89 71 161 143 109 102 117 118 99 101 123 101 99 87 105 121 57 68 62 57 46 32 28 19 17 14 10 10 10 7 14 15 10 357 4 2 354 354 353 351 344 344 340 336 330 337 331 326
102 80 112 125 153 168 164 112 124 121 122 88 125 86 118 150 109 93 82 79 67 51 39 26 19 14 12 9 15 18 23 21 12 9 2 6 5 357 347 349 343 344 345 339 335 335 335 329 326
96 93 111 143 176 178 153 103 96 120 106 113 83 136 157 148 146 117 85 68 55 44 35 24 18 12 12 20 17 16 19 12 13 11 7 6 3 355 347 346 338 343 344 337 343 334 325 329 332
98 73 150 175 167 148 159 131 68 66 100 70 31 77 102 121 123 83 49 43 36 35 29 25 17 15 11 28 11 15 9 11 11 9 5 3 1 357 3 353 348 348 345 349 341 341 329 338 329
53 84 116 5 143 159 152 117 129 131 125 79 87 89 103 102 92 78 49 31 27 20 15 20 17 15 8 9 6 12 5 5 6 1 4 5 360 355 357 352 349 347 342 343 341 339 338 331 322
27 94 135 17 96 128 128 101 96 133 170 169 164 154 137 118 108 81 62 39 12 3 13 10 4 4 10 1 3 7 4 9 2 4 3 359 357 353 351 344 342 340 338 338 336 335 330 328 320
95 52 71 126 97 102 121 114 87 41 66 146 145 147 139 134 101 85 57 39 27 15 10 1 5 3 3 356 2 354 0 10 7 354 353 348 345 348 347 339 336 332 336 331 330 327 322 320 314
78 122 55 73 84 81 103 76 129 103 119 110 125 123 131 130 113 95 65 45 29 16 359 2 357 7 0 358 348 346 350 352 345 342 339 342 338 335 332 332 329 329 331 327 325 321 318 317 317
91 97 110 49 87 96 108 130 103 169 142 126 128 128 140 128 134 114 73 46 23 351 357 348 358 9 352 352 349 349 342 342 339 333 334 334 332 330 330 332 331 332 332 325 320 317 315 315 318
132 90 89 92 119 104 140 184 218 146 160 145 142 145 139 134 136 87 67 71 11 352 341 352 344 3 355 350 351 351 355 346 342 340 337 339 339 337 335 332 330 331 330 325 321 314 312 314 316
62 69 38 169 155 102 13 278 155 158 157 167 164 162 163 159 143 105 132 132 25 349 345 334 343 348 356 356 350 350 351 350 351 347 343 346 342 339 335 333 327 331 322 320 325 324 322 318 311
17 258 227 280 195 132 187 270 150 179 179 176 183 183 184 180 160 153 196 165 6 344 332 340 350 358 351 349 350 354 357 354 352 352 350 350 344 342 336 323 321 326 319 316 330 323 315 316 313
211 236 240 265 177 177 174 246 187 195 196 195 192 198 202 201 210 197 204 193 337 319 332 323 348 357 350 347 352 359 357 354 352 356 351 346 345 345 335 324 327 328 328 326 330 319 315 313 309
120 168 238 194 168 177 225 261 225 202 211 199 203 206 210 213 214 203 197 314 327 234 333 353 341 349 349 355 352 351 344 338 343 355 349 349 342 345 345 340 338 326 329 326 318 315 310 311 325
133 159 260 147 115 193 203 267 269 194 219 205 198 208 209 195 202 214 217 257 268 309 310 321 340 340 359 354 346 307 314 315 321 334 344 354 352 350 345 345 333 340 324 324 327 316 309 292 319
138 179 194 221 88 188 313 272 286 190 229 202 203 200 205 206 209 212 213 244 255 270 296 323 330 338 1 356 337 338 335 315 326 349 345 344 345 347 349 352 348 345 337 320 328 316 307 309 325
253 169 130 124 55 299 354 301 267 261 252 218 211 196 203 198 209 209 202 226 235 268 293 297 331 349 357 354 353 5 349 339 327 323 327 337 349 346 347 345 345 348 346 334 326 334 334 334 322
164 112 97 99 98 46 35 198 253 332 267 231 216 207 206 204 205 206 207 226 236 241 294 331 321 323 346 344 357 346 339 321 317 326 336 345 341 346 347 348 345 347 349 346 341 337 338 340 332
144 92 54 65 104 42 135 21 265 203 213 252 203 202 202 202 206 209 210 218 216 221 237 256 326 328 340 327 341 338 325 329 332 339 336 341 338 339 348 348 347 337 343 350 346 344 338 345 346
76 66 341 342 8 248 123 350 252 227 223 226 209 199 198 197 198 204 202 207 217 220 225 250 277 296 321 312 292 316 321 315 317 330 329 337 345 340 343 347 341 340 336 343 350 350 350 340 343
252 171 148 259 280 296 99 236 246 201 242 265 238 194 181 192 201 204 207 209 215 210 211 222 250 271 283 302 294 290 307 303 316 321 322 323 329 329 330 336 340 339 337 340 346 352 346 351 350
132 230 138 103 60 309 250 276 246 234 229 228 168 176 194 198 198 206 207 206 213 216 223 222 247 261 265 285 289 292 305 308 310 318 317 321 319 323 341 339 340 340 350 348 343 344 348 347 352
160 122 59 31 155 278 279 277 250 224 221 213 208 208 206 203 200 205 206 202 208 214 214 226 242 263 275 286 285 291 302 302 305 303 319 328 321 319 328 341 345 344 342 350 352 344 347 351 359
109 279 48 108 72 178 303 265 208 203 193 200 211 207 201 201 200 202 203 201 209 214 213 220 223 234 254 272 293 298 307 311 313 309 325 327 318 325 323 329 335 342 340 349 348 349 349 354 353
213 188 161 124 214 55 115 270 178 212 200 204 206 203 201 202 198 199 199 197 201 210 215 228 237 248 266 286 288 296 302 310 307 316 324 327 325 321 321 324 327 329 334 333 338 346 346 348 351